Weather in Tauranga

New Zealand     37°41′52″S   176°09′29″E
temp.,
°C
wind,
m/s
gust,
m/s
humid.,
%
clouds,
%
prec.,
mm/h
press.,
hPa
HPBL,
m
9 december, thu
thu901:00+16ssw2396100 0.0 102071
04:00+16sw11945 0.0 101852
07:00+17sw1287100 0.0 101886
10:00+23nw23555 0.0 1018913
13:00+25n4450100 0.0 10161135
16:00+24nnw565698 0.0 1015799
19:00+21nnw3580100 0.1 1015251
22:00+18sw2485100 0.0 101672
10 december, fri
fri1001:00+17sw2286100 0.0 101772
04:00+16sw1286100 0.0 101668
07:00+17sw138054 0.0 1016116
10:00+23nw125463 0.0 1016917
13:00+25n4451100 0.0 10151389
16:00+24nnw5560100 0.0 1014754
19:00+21n347697 0.0 1015314
22:00+19sse1194100 0.4 101649
11 december, sat
sat1101:00+18s239792 0.5 101692
04:00+18s1194100 0.1 101656
07:00+18sw1191100 0.1 101766
10:00+21nne1177100 0.3 1017364
13:00+23nne436287 0.3 10171050
16:00+22n346535 0.0 1016752
19:00+21n357696 0.0 1016480
22:00+18ssw2394100 0.2 101770
12 december, sun
sun1201:00+18sw118497 0.2 101751
04:00+17ssw118584 0.0 101635
07:00+18se1182100 0.0 101764
10:00+20ene1176100 0.1 1018249
13:00+20nne1179100 0.3 1018245
16:00+19nw1190100 0.8 101869
19:00+18ese1194100 1.4 101829
22:00+18e2397100 0.9 1020152
13 december, mon
mon1301:00+18ene1296100 1.4 1020159
04:00+18ene139896 2.8 1019205
07:00+18ne2598100 5.2 1019358
10:00+18ne2597100 2.5 1020525
13:00+19ne3697100 4.5 1019535
16:00+19ene369763 1.9 1018513
19:00+19ne359691 3.9 1017446
22:00+18n1296100 0.9 101894